AO-07 1 07530U 74089B 20184.66622378 -.00000042 00000-0 18116-4 0 9996 2 07530 101.8003 154.3225 0012130 337.0046 196.3028 12.53644024 88132 UO-11 1 14781U 84021B 20184.06407402 .00000049 00000-0 12137-4 0 9995 2 14781 097.5893 195.3121 0009302 144.7929 215.3901 14.83175526933992 LO-19 1 20442U 90005G 20184.10588640 -.00000019 00000-0 93872-5 0 9998 2 20442 098.6929 131.4050 0012849 109.7144 250.5427 14.32955823590653 HUBBLE 1 20580U 90037B 20184.19846487 .00000325 00000-0 87283-5 0 9999 2 20580 028.4684 222.1406 0002417 249.0457 348.5906 15.09402157458197 MET-2/21 1 22782U 93055A 20184.20085054 .00000010 00000-0 -42805-5 0 9998 2 22782 82.5484 221.8790 0022178 190.4085 232.0730 13.83826186355354 AO-27 1 22825U 93061C 20184.06547451 -.00000012 00000-0 13484-4 0 9993 2 22825 098.9229 186.8857 0008041 342.1490 017.9408 14.30087776395907 IO-26 1 22826U 93061D 20184.04846486 -.00000005 00000-0 16190-4 0 9991 2 22826 098.9170 186.8137 0008333 329.2630 030.8062 14.30423597396131 FO-29 1 24278U 96046B 20184.54794696 -.00000016 00000-0 21599-4 0 9991 2 24278 98.5853 292.4024 0349947 335.9270 22.5847 13.53097723179174 NOAA-15 1 25338U 98030A 20184.73062040 .00000075 00000-0 50224-4 0 9997 2 25338 98.7156 209.7034 0009755 212.7793 147.2782 14.25976257151401 GO-32 1 25397U 98043D 20184.13375579 -.00000029 00000-0 64558-5 0 9990 2 25397 98.7290 125.5200 0002006 50.2517 309.8838 14.23686921141867 ISS 1 25544U 98067A 20184.78322677 .00000776 00000-0 21910-4 0 9994 2 25544 51.6452 271.2675 0002579 105.8439 39.7759 15.49477721234431 NO-44 1 26931U 01043C 20184.75974921 -.00000051 00000-0 12064-4 0 9992 2 26931 67.0518 102.8964 0005872 272.8578 87.1851 14.30580998979339 SO-50 1 27607U 02058C 20184.75191986 -.00000050 00000-0 13360-4 0 9991 2 27607 64.5561 327.5937 0046030 172.5855 187.5939 14.75643665943110 CO-55 1 27844U 03031E 20184.69849217 .00000034 00000-0 34863-4 0 9998 2 27844 98.6809 192.2031 0010226 18.6999 341.4552 14.22244779882305 CO-57 1 27848U 03031J 20183.95549454 .00000028 00000-0 32584-4 0 9991 2 27848 098.6875 192.0297 0010380 032.4421 327.7393 14.21830688882005 RS-22 1 27939U 03042A 20184.73430160 .00000080 00000-0 23008-4 0 9993 2 27939 98.0935 319.3522 0011785 308.7146 51.3004 14.66869245896256 NOAA-18 1 28654U 05018A 20184.17999171 .00000063 00000-0 58633-4 0 9996 2 28654 099.0426 240.7461 0014279 185.4134 174.6885 14.12522058778999 CO-58 1 28895U 05043F 20184.58933818 .00000079 00000-0 24167-4 0 9994 2 28895 98.0117 320.5222 0015752 229.7810 130.2015 14.63779732783059 Falconsat-3 1 30776U 07006E 20184.15999297 .00001376 00000-0 37569-4 0 9993 2 30776 035.4330 185.9173 0003091 304.3753 055.6681 15.37859819739102 CO-65 1 32785U 08021C 20184.79336509 .00000134 00000-0 20061-4 0 9994 2 32785 97.5729 172.1354 0014640 83.3440 276.9443 14.88482801660221 AAUSAT2 1 32788U 08021F 20184.71212102 .00000214 00000-0 24510-4 0 9993 2 32788 97.4907 188.5326 0012058 13.0706 347.0825 14.95082465661693 DO-64 1 32789U 08021G 20184.13408847 .00001205 00000-0 82703-4 0 9992 2 32789 97.4169 226.4223 0010312 264.3525 95.6527 15.07767334664128 CO-66 1 32791U 08021J 20184.23090741 .00000096 00000-0 14999-4 0 9995 2 32791 097.5406 177.7289 0014698 057.4090 302.8545 14.91064690660581 RS-30 1 32953U 08025A 20184.68877803 .00000037 00000-0 19437-3 0 9996 2 32953 82.5026 268.4253 0019235 24.4346 335.7642 12.43097028549521 PRISM 1 33493U 09002B 20184.09193126 .00000078 00000-0 12380-4 0 9992 2 33493 098.1446 124.9914 0015390 011.3127 348.8436 14.97057328621897 NOAA-19 1 33591U 09005A 20184.18490615 .00000054 00000-0 54656-4 0 9993 2 33591 99.1948 189.9159 0014608 38.2583 321.9621 14.12418617587473 TISAT-1 1 36799U 10035E 20184.73417207 .00000144 00000-0 20645-4 0 9999 2 36799 98.1954 355.5951 0010819 281.3841 78.6161 14.91373351541401 JUGNU 1 37839U 11058B 20184.69956330 .00000304 00000-0 20182-4 0 9995 2 37839 19.9596 190.3063 0018855 195.7317 321.8382 14.12682916451055 SRMSAT 1 37841U 11058D 20184.58480896 .00000312 00000-0 26462-4 0 9991 2 37841 19.9712 255.6496 0012033 50.3517 94.0519 14.10662314450398 AO-71 1 37854U 11061E 20184.56586613 .00000414 00000-0 28847-4 0 9993 2 37854 101.7009 283.6094 0158165 16.8998 343.7400 15.07327693474207 HRBE 1 37855U 11061F 20184.78726248 .00000479 00000-0 31568-4 0 9993 2 37855 101.7141 281.0964 0170792 29.4605 331.6102 15.06354213473984 HORYU-2 1 38340U 12025D 20184.19348034 .00000096 00000-0 21865-4 0 9996 2 38340 098.2794 238.0851 0011311 001.4117 358.7121 14.75863372426721 RS-40 1 38735U 12041C 20184.50686869 .00000012 00000-0 14443-4 0 9990 2 38735 082.4754 351.2743 0017511 127.1013 233.1674 12.42580074359728 BEESAT-3 1 39135U 13015F 20184.19487299 .00000575 00000-0 37500-4 0 9991 2 39135 064.8668 253.8023 0035600 243.7388 116.0078 15.18211288397451 BEESAT-2 1 39136U 13015G 20184.18252625 .00000521 00000-0 35505-4 0 9998 2 39136 064.8703 258.8639 0031656 278.1402 081.6134 15.17595482397355 ZACUBE-1 1 39417U 13066B 20184.56383377 .00000140 00000-0 24001-4 0 9993 2 39417 97.5646 181.7465 0057605 227.3426 132.2926 14.81286087357278 TRITON-1 1 39427U 13066M 20184.54190201 .00000168 00000-0 34538-4 0 9990 2 39427 97.7248 144.6283 0114841 30.1862 330.5891 14.68012944354078 GOMX-1 1 39430U 13066Q 20184.75200559 .00000084 00000-0 23917-4 0 9991 2 39430 97.7915 122.3572 0151737 135.9575 225.3836 14.59407120352035 LO-74 1 39440U 13066AA 20184.20019754 .00000123 00000-0 24286-4 0 9991 2 39440 97.6313 165.8870 0078639 292.8600 66.4321 14.76022082355957 AO-73 1 39444U 13066AE 20184.08032624 .00000156 00000-0 25509-4 0 9997 2 39444 097.5587 183.5287 0056820 220.8996 138.7949 14.82140861355535 SPROUT 1 39770U 14029E 20184.75068514 .00000433 00000-0 53521-4 0 9993 2 39770 97.8976 290.9642 0007519 281.1281 78.9084 14.87783046331338 DUCHIFAT-1 1 40021U 14033M 20184.78282250 .00000135 00000-0 19590-4 0 9994 2 40021 97.9429 116.1133 0011499 233.6660 126.3496 14.90921338328177 NANOSATCBR1 1 40024U 14033Q 20184.20991734 .00000261 00000-0 32912-4 0 9991 2 40024 097.9277 111.8700 0010762 240.8296 119.1845 14.90088103327430 DTUSAT-2 1 40030U 14033W 20184.74259965 .00000141 00000-0 21104-4 0 9998 2 40030 97.9031 106.4849 0010470 242.5045 117.5107 14.88725365327793 EO-80 1 40032U 14033Y 20184.76201421 .00000104 00000-0 17206-4 0 9993 2 40032 97.9038 106.5067 0010401 243.2846 116.7306 14.88674602327784 ANTELSAT 1 40034U 14033AA 20184.19758470 .00000137 00000-0 27716-4 0 9996 2 40034 097.7132 039.1838 0057533 312.2357 047.3978 14.74266719324059 VELOX-1 1 40057U 14034E 20184.80214156 .00000173 00000-0 31685-4 0 9998 2 40057 98.2830 322.1898 0012316 97.2135 263.0476 14.77885280323906 DAURIA DX 1 1 40071U 14037C 20184.84971317 .00000049 00000-0 13787-4 0 9995 2 40071 98.4616 4.1030 0009684 88.0470 272.1851 14.81372216323537 HODOYOSHI-1 1 40299U 14070B 20184.76625718 .00000361 00000-0 17694-4 0 9994 2 40299 97.3217 261.1473 0014045 136.6647 16.2894 15.24088370314147 CHUBUSAT-1 1 40300U 14070C 20184.79951007 .00000372 00000-0 18906-4 0 9992 2 40300 97.2871 253.5020 0020360 154.6925 345.2617 15.22530800313846 QSAT-EOS 1 40301U 14070D 20184.79893987 .00001182 00000-0 46918-4 0 9999 2 40301 97.2924 258.8901 0026469 131.5421 9.7980 15.26995325314277 FIREBIRD FU3 1 40377U 15003B 20184.73151410 .00000814 00000-0 35443-4 0 9993 2 40377 99.0939 248.0624 0122488 263.0104 95.7181 15.20107756299633 FIREBIRD FU4 1 40378U 15003C 20184.78143022 .00000803 00000-0 35019-4 0 9996 2 40378 99.0942 248.2221 0122663 262.7094 96.0180 15.20123594299644 GRIFEX 1 40379U 15003D 20184.78848613 .00000549 00000-0 27564-4 0 9998 2 40379 99.1010 240.0593 0131608 288.2189 70.4751 15.16451912299172 NO-84 1 40654U 15025D 20183.32731205 .00007441 00000-0 90117-4 0 9728 2 40654 54.9870 236.7110 0113125 222.9715 136.2323 15.54548565171181 DEORBITSAIL 1 40719U 15032E 20184.20195740 .00000240 00000-0 41154-4 0 9990 2 40719 97.8688 72.4801 0016685 155.1818 205.0199 14.77017076268277 NUDT-PHONESAT 1 40900U 15049B 20184.75602031 .00001378 00000-0 59518-4 0 9992 2 40900 97.4299 195.5765 0010933 294.4369 180.4193 15.24164304265522 XW-2A 1 40903U 15049E 20184.80385220 .00001369 00000-0 32803-4 0 9997 2 40903 97.2865 233.7667 0012245 200.3875 219.8101 15.43139371268845 XW-2C 1 40906U 15049H 20184.77235365 .00000244 00000-0 16145-4 0 9992 2 40906 97.4770 185.8957 0013820 327.0966 207.6533 15.16091343264578 XW-2D 1 40907U 15049J 20184.76373200 .00000372 00000-0 22621-4 0 9991 2 40907 97.4752 185.5960 0013160 324.3621 210.3844 15.16327319264598 LILACSAT-2 1 40908U 15049K 20184.79039936 .00000071 00000-0 75169-5 0 9992 2 40908 97.4907 183.9528 0015289 334.3220 197.8474 15.14053083264313 XW-2E 1 40909U 15049L 20184.83865948 .00000540 00000-0 29470-4 0 9992 2 40909 97.4627 189.1743 0012276 314.1886 168.5993 15.18461504264863 XW-2F 1 40910U 15049M 20184.78742878 .00000697 00000-0 37588-4 0 9996 2 40910 97.4679 188.2156 0013437 312.2588 133.6666 15.17971876264663 XW-2B 1 40911U 15049N 20184.79795034 .00000578 00000-0 33310-4 0 9997 2 40911 97.4757 186.3248 0013114 325.1061 119.8098 15.16254328264494 DCBB 1 40912U 15049P 20184.77393628 .00000707 00000-0 35604-4 0 9991 2 40912 97.4479 192.3665 0013122 288.2471 246.9099 15.20368640265042 TW-1C 1 40926U 15051B 20184.77343334 .00016442 00000-0 15950-3 0 9992 2 40926 97.0832 236.6531 0006363 47.8253 46.2120 15.66399425269423 TW-1A 1 40928U 15051D 20184.85529994 .00002108 00000-0 50142-4 0 9998 2 40928 97.1083 212.3103 0012085 125.4992 49.1843 15.42681919267744 IO-86 1 40931U 15052B 20183.73558911 .00000292 00000-0 -48445-4 0 9996 2 40931 5.9960 233.6205 0012786 116.8157 243.3541 14.76634177257374 LQSat 1 40958U 15057A 20184.74075764 -.00000013 00000-0 54888-5 0 9992 2 40958 97.8517 247.6171 0019593 100.4081 259.9337 14.73123338254750 ATHENOXAT-1 1 41168U 15077C 20184.71438532 .00001344 00000-0 34355-4 0 9994 2 41168 14.9887 309.4490 0011422 340.6895 19.2992 15.14406478251665 ChubuSat-2 1 41338U 16012B 20184.60449335 .00000229 00000-0 10993-4 0 9997 2 41338 31.0026 250.1131 0013786 267.1076 92.7982 15.00301743240018 ChubuSat-3 1 41339U 16012C 20184.86357529 .00000213 00000-0 97324-5 0 9996 2 41339 31.0127 246.0850 0013555 278.5677 81.3421 15.00465925240059 Horyu-4 1 41340U 16012D 20184.19047812 .00000314 00000-0 16990-4 0 9996 2 41340 031.0041 237.9372 0013964 295.3436 064.5754 15.01511699240095 OUFTI-1 1 41458U 16025C 20184.75602944 .00001179 00000-0 62384-4 0 9993 2 41458 98.1065 296.1421 0164057 157.7296 203.1164 15.06898518229784 e-st@r-II 1 41459U 16025D 20184.80609681 .00000815 00000-0 44860-4 0 9990 2 41459 98.1053 295.5970 0165464 159.6168 201.1784 15.06450675229757 AAUSAT4 1 41460U 16025E 20184.78718913 .00003032 00000-0 14983-3 0 9994 2 41460 98.1028 297.9586 0154695 148.4621 212.6022 15.08789145229957 LO-87 1 41557U 16033B 20184.83371806 .00000725 00000-0 29145-4 0 9995 2 41557 97.4040 274.9573 0014495 39.5972 320.6323 15.28052644228124 NuSat2 1 41558U 16033C 20184.84455147 .00000816 00000-0 30642-4 0 9993 2 41558 97.4096 277.3281 0013453 37.2642 322.9530 15.30042320228242 Lapan A3 1 41603U 16040E 20184.42288434 .00000074 00000-0 65448-5 0 9998 2 41603 097.3077 237.4986 0014210 144.1492 336.7993 15.19845657223414 Swayam 1 41607U 16040J 20184.10272808 .00001011 00000-0 44157-4 0 9990 2 41607 97.3165 243.1274 0014471 130.6568 229.5930 15.24275183223656 Pratham 1 41783U 16059A 20184.17639588 .00000030 00000-0 15120-4 0 9992 2 41783 098.0152 239.2218 0032134 269.8224 089.9296 14.63061633201035 AlSat 1N 1 41789U 16059G 20184.86447749 .00000018 00000-0 12504-4 0 9999 2 41789 98.0193 242.7444 0026999 254.4225 105.3976 14.64326752201281 ScatSat 1 41790U 16059H 20184.84475266 -.00000011 00000-0 79847-5 0 9992 2 41790 98.1594 224.6731 0004541 228.2326 131.8472 14.50921418199452 TY-1 1 41844U 16066D 20184.80511013 .00000513 00000-0 23498-4 0 9993 2 41844 97.4020 192.8015 0013473 293.4992 241.0762 15.24874157202603 Pegasus-1 1 41846U 16066F 20184.11236845 .00000185 00000-0 38366-4 0 9991 2 41846 098.6603 234.3224 0366764 189.3642 170.0579 14.37778980191073 CAS-2T 1 41847U 16066G 20184.16617182 .00000045 00000-0 17108-4 0 9990 2 41847 098.6527 234.8317 0365644 184.9157 174.8402 14.38074453191538 EO-88 1 42017U 17008BX 20184.69134111 .00000969 00000-0 39838-4 0 9990 2 42017 97.3592 252.0312 0004444 266.8433 93.2297 15.26533869187875 CAS-4B 1 42759U 17034B 20184.84415087 -.00000002 00000-0 13338-4 0 9999 2 42759 43.0201 302.4934 0009421 129.9496 13.7452 15.09837647168298 CAS-4A 1 42761U 17034D 20184.85426196 .00000123 00000-0 20915-4 0 9998 2 42761 43.0205 301.7278 0009911 131.3453 14.8375 15.09917229168293 UCLSat 1 42765U 17036A 20184.72299131 .00000737 00000-0 33704-4 0 9998 2 42765 97.2996 238.5542 0010503 341.3833 18.7018 15.23555658168310 NIUSat 1 42766U 17036B 20184.13256546 .00000593 00000-0 29117-4 0 9990 2 42766 097.2990 235.4109 0014525 334.6555 025.3967 15.21744126167925 LituanicaSAT 2 1 42768U 17036D 20184.10363632 .00001318 00000-0 57007-4 0 9999 2 42768 097.3052 237.9467 0013525 330.5996 029.4479 15.24121119168078 Aalto 1 1 42775U 17036L 20184.18097039 .00000509 00000-0 25360-4 0 9998 2 42775 097.2971 235.8027 0012933 334.5504 025.5094 15.21861238167917 URSA MAIOR 1 42776U 17036M 20184.16850064 .00000561 00000-0 27489-4 0 9994 2 42776 097.2983 236.0815 0012733 334.3625 025.6979 15.22045819167923 Max Valier Sat 1 42778U 17036P 20184.19453626 .00000626 00000-0 29828-4 0 9993 2 42778 97.3038 237.4223 0011339 338.5967 21.4794 15.22643373167974 Pegasus 1 42784U 17036V 20184.68572062 .00000735 00000-0 33899-4 0 9994 2 42784 97.3000 238.2014 0011111 341.9202 18.1639 15.23244091168095 NUDATSat 1 42787U 17036Y 20184.59826791 .00001144 00000-0 49220-4 0 9998 2 42787 097.3041 239.5459 0011636 338.6710 021.4039 15.24567161168008 SUCHAI 1 1 42788U 17036Z 20184.70444058 .00000876 00000-0 39242-4 0 9998 2 42788 97.3009 238.8219 0010583 340.4682 19.6149 15.23799284168203 SKCUBE 1 42789U 17036AA 20184.16104223 .00000851 00000-0 38369-4 0 9998 2 42789 097.3004 238.1411 0010556 342.8675 017.2204 15.23638300168032 VZLUSAT 1 1 42790U 17036AB 20184.19358579 .00001136 00000-0 48952-4 0 9994 2 42790 097.3030 239.1473 0009956 340.7245 019.3614 15.24551714168092 VENTA 1 1 42791U 17036AC 20184.13527028 .00000836 00000-0 37767-4 0 9994 2 42791 097.3002 238.1576 0010251 343.7575 016.3332 15.23621044168024 Robusta 1B 1 42792U 17036AD 20184.70402292 .00000861 00000-0 38588-4 0 9993 2 42792 97.3006 238.9256 0010088 341.6266 18.4606 15.23828698168148 D-SAT 1 42794U 17036AF 20184.13649664 -.00000008 00000-0 49052-5 0 9991 2 42794 097.4922 216.0652 0124978 316.5677 042.5748 14.91286727164883 TechnoSat 1 42829U 17042E 20184.71739879 -.00000042 00000-0 11238-5 0 9992 2 42829 97.5183 65.7796 0012888 230.2228 129.7857 14.91107321161563 QIKCOM-1 1 42983U 98067NF 20184.66620703 .00002108 00000-0 30021-4 0 9992 2 42983 51.6377 228.8094 0004059 108.7375 251.4060 15.61661613152663 AO-91 1 43017U 17073E 20184.74752470 .00000496 00000-0 44028-4 0 9995 2 43017 97.7224 96.3927 0257072 0.9041 359.2583 14.78956825141423 EcAMSat 1 43019U 98067NG 20184.56482776 .00004821 00000-0 50732-4 0 9993 2 43019 51.6391 214.7147 0004042 95.1005 265.0452 15.66433268235165 PICSAT 1 43132U 18004X 20184.14915148 .00000894 00000-0 39342-4 0 9990 2 43132 097.4466 255.4000 0009694 012.5209 347.6267 15.24448533137290 AO-92 1 43137U 18004AC 20184.19038784 .00000659 00000-0 30026-4 0 9991 2 43137 97.4451 255.2515 0009391 14.8054 345.3456 15.24147815137288 TianYi 2 1 43155U 18008A 20184.77939984 .00000226 00000-0 16955-4 0 9996 2 43155 97.4453 253.4800 0019272 95.2714 52.1536 15.11651667135238 Zhou Enlai 1 43156U 18008B 20184.81201750 .00000857 00000-0 54654-4 0 9993 2 43156 97.4504 253.3595 0016325 93.9597 40.9027 15.11200965135192 TianYi 6 1 43158U 18008D 20184.69895267 .00000167 00000-0 13821-4 0 9998 2 43158 97.4430 252.2868 0015376 92.2830 24.9953 15.10730112135124 S-Net G 1 43186U 18014G 20184.22232179 .00000582 00000-0 55819-4 0 9996 2 43186 097.6935 091.8220 0011362 166.8211 193.3310 14.96815295131907 S-Net H 1 43187U 18014H 20184.22214676 .00000577 00000-0 55419-4 0 9999 2 43187 097.6933 091.7998 0011356 166.8170 193.3351 14.96815073131903 S-Net J 1 43188U 18014J 20184.22201781 .00000569 00000-0 54686-4 0 9999 2 43188 097.6936 091.8299 0011352 166.8847 193.2672 14.96814823131906 S-Net K 1 43189U 18014K 20184.22244581 .00000587 00000-0 56247-4 0 9990 2 43189 097.6932 091.7953 0011352 166.7340 193.4182 14.96814360130459 FMN 1 1 43192U 18015A 20184.81998037 .00001305 00000-0 53996-4 0 9999 2 43192 97.4455 314.2362 0016731 40.2718 114.1675 15.25665169134241 Shaonian Xing 1 43199U 18015H 20184.87093970 .00000973 00000-0 40761-4 0 9990 2 43199 97.4232 312.5179 0017939 49.0017 68.9117 15.25810368134316 UBAKUSAT 1 43467U 98067NQ 20184.76141050 .00019095 00000-0 12320-3 0 9998 2 43467 51.6343 202.9022 0002166 55.5267 304.5937 15.76164768122524 EnduroSat One 1 43551U 98067NZ 20184.20685559 .00047582 00000-0 22147-3 0 9998 2 43551 051.6316 202.1313 0002248 080.5733 279.5523 15.82860013112715 EQUISat 1 43552U 98067PA 20184.77647868 .00019176 00000-0 12989-3 0 9993 2 43552 51.6318 209.8713 0002656 129.8041 230.3192 15.75037415112629 UiTMSat 1 1 43589U 98067PD 20184.51720705 .00026839 00000-0 15696-3 0 9999 2 43589 51.6329 208.6969 0001309 129.8132 230.2984 15.78155585108351 Maya 1 1 43590U 98067PE 20184.76338138 .00026738 00000-0 15631-3 0 9990 2 43590 51.6277 207.3264 0001521 117.9758 242.1396 15.78166063108326 Bhutan 1 1 43591U 98067PF 20184.10106522 .00028355 00000-0 16450-3 0 9996 2 43591 51.6343 210.4952 0001422 131.8548 228.2575 15.78302296108225 SiriusSat 1 1 43595U 98067PG 20184.56154324 .00021672 00000-0 14330-3 0 9993 2 43595 51.6285 213.5259 0002015 63.9542 296.1664 15.75502866107400 SiriusSat 2 1 43596U 98067PH 20184.62441824 .00021902 00000-0 14548-3 0 9992 2 43596 51.6284 214.0228 0002213 68.0637 292.0597 15.75390454107401 Tanusha-3 1 43597U 98067PJ 20184.21661102 .00086240 00000-0 30641-3 0 9999 2 43597 051.6256 201.2367 0004029 035.5659 324.5614 15.88216839107536 SurfSat 1 43614U 18070B 20184.61861626 .00001822 00000-0 46949-4 0 9994 2 43614 93.0209 160.8553 0012345 281.3222 78.6645 15.39250762100812 CP-7 DAVE 1 43615U 18070C 20184.19636247 .00001768 00000-0 45781-4 0 9999 2 43615 093.0211 160.6702 0012522 282.7830 077.2025 15.39101107100744 ELFIN-B 1 43616U 18070D 20184.09388376 .00002829 00000-0 69909-4 0 9993 2 43616 093.0168 160.5749 0012807 284.9914 074.9923 15.40473656100776 ELFIN-A 1 43617U 18070E 20184.19036677 .00002879 00000-0 70733-4 0 9991 2 43617 093.0219 161.1389 0012090 280.5305 079.4588 15.40667842100792 STARS-Me Mother 1 43640U 98067PQ 20184.67752294 .00008413 00000-0 85663-4 0 9992 2 43640 51.6339 230.9820 0004217 81.5770 278.5703 15.66089862 99115 CubeBel 1 1 43666U 18083E 20184.79571582 .00000740 00000-0 39364-4 0 9994 2 43666 97.4883 211.1102 0013568 311.7246 164.6116 15.18286527 92945 Changshagaoxin 1 43669U 18083H 20184.84454093 .00000503 00000-0 28615-4 0 9994 2 43669 97.4757 209.3031 0009378 305.9054 54.1309 15.17313002 92860 Ten-Koh 1 43677U 18084G 20184.59648699 .00000110 00000-0 17174-4 0 9995 2 43677 97.8847 301.6230 0017486 107.2420 253.0713 14.90294097 91195 PO-101 1 43678U 18084H 20184.83599850 .00000430 00000-0 48497-4 0 9994 2 43678 97.8867 303.2405 0011231 122.4983 237.7330 14.91639875 91311 IRVINE 01 1 43693U 18088D 20184.14487608 .00001594 00000-0 66051-4 0 9994 2 43693 085.0351 067.2896 0015645 233.5684 126.4117 15.22927546091082 QO-100 1 43700U 18090A 20184.13226035 .00000138 00000-0 00000 0 0 9990 2 43700 0.0078 323.7613 0001774 163.3914 226.8769 1.00273610 6109 Reaktor Hello World 1 43743U 18096AA 20184.75838037 .00000824 00000-0 33315-4 0 9994 2 43743 97.4207 258.5549 0019532 75.7801 284.5606 15.27440226 88738 MinXSS-2 1 43758U 18099A 20184.18369693 -.00000196 00000-0 -12383-4 0 9993 2 43758 97.7058 255.8843 0016627 136.5571 223.6963 14.95677573 86155 AO-95 1 43770U 18099N 20184.70201022 -.00000017 00000-0 36970-5 0 9996 2 43770 97.7053 255.8168 0015563 141.5693 218.6639 14.95000198 86194 RANGE-B 1 43772U 18099Q 20184.18493004 -.00000120 00000-0 -56817-5 0 9991 2 43772 097.7119 255.8346 0015362 131.6048 228.6492 14.95188767086117 RANGE-A 1 43773U 18099R 20184.15745482 .00000319 00000-0 34334-4 0 9996 2 43773 97.6995 254.9116 0014811 131.0580 229.1923 14.94975995 86107 MOVE-II 1 43780U 18099Y 20184.78060820 -.00000082 00000-0 -22147-5 0 9998 2 43780 97.7055 256.1145 0014568 139.1220 221.1096 14.95414783 86206 SNUSat 2 1 43782U 18099AA 20184.19210136 .00000002 00000-0 53558-5 0 9992 2 43782 97.7046 255.5330 0013932 130.7870 229.4562 14.95263911 86124 SnugLite 1 43784U 18099AC 20184.15953899 .00000377 00000-0 39302-4 0 9995 2 43784 97.7016 255.3229 0016241 138.1538 222.0928 14.95366133 86133 ITASat 1 1 43786U 18099AE 20184.16016176 .00000351 00000-0 36918-4 0 9998 2 43786 97.7070 255.7145 0016347 137.3677 222.8816 14.95338242 86132 EAGLET 1 1 43790U 18099AJ 20184.14842608 .00000619 00000-0 60638-4 0 9991 2 43790 097.7058 255.9642 0014626 141.3005 218.9266 14.95716170085847 ESEO 1 43792U 18099AL 20184.15987831 .00000259 00000-0 28466-4 0 9995 2 43792 97.7033 255.7925 0014393 137.9616 222.2712 14.95606117 85904 CSIM 1 43793U 18099AM 20184.73509429 .00000485 00000-0 48251-4 0 9998 2 43793 97.7023 256.3491 0014369 134.6231 225.6165 14.96062779 85976 Astrocast 0.1 1 43798U 18099AS 20184.73839599 .00000334 00000-0 35007-4 0 9995 2 43798 97.7051 256.6463 0013890 121.2592 238.9992 14.95876954 86236 JO-97 1 43803U 18099AX 20184.70820954 -.00000205 00000-0 -13292-4 0 9995 2 43803 97.7029 256.0686 0016228 136.1888 224.0624 14.95516173 86210 Suomi 100 1 43804U 18099AY 20184.77606246 -.00000238 00000-0 -16230-4 0 9990 2 43804 97.7026 256.1230 0016290 136.1387 224.1130 14.95504219 86230 Al Farabi 2 1 43805U 18099AZ 20184.81594363 .00000713 00000-0 69225-4 0 9990 2 43805 97.7035 256.2501 0016547 135.8639 224.3905 14.95626103 86244 PWSat 2 1 43814U 18099BJ 20184.22091139 .00023031 00000-0 13029-2 0 9995 2 43814 097.7910 265.2453 0011753 135.3810 224.8369 15.13009001085951 CHOMPTT 1 43855U 18104G 20184.22021080 .00000724 00000-0 28945-4 0 9994 2 43855 085.0376 165.4416 0017637 005.7938 354.3505 15.22992767085771 ISAT 1 43879U 18111D 20184.81250527 .00000352 00000-0 36264-4 0 9993 2 43879 97.7012 91.9965 0012871 186.5447 173.5609 14.96248951 80774 UWE-4 1 43880U 18111E 20184.18894649 -.00000363 00000-0 -26801-4 0 9994 2 43880 097.7030 091.6595 0011687 189.8344 170.2650 14.96514791082699 Sparrow 1 43881U 18111F 20184.17057195 .00000507 00000-0 49655-4 0 9991 2 43881 097.7040 091.7163 0011968 186.2310 173.8764 14.96546297082690 Lume 1 1 43908U 18111AJ 20184.20532040 .00000724 00000-0 31566-4 0 9995 2 43908 097.2647 083.7058 0023048 090.8676 269.5203 15.25060920084273 FO-98 1 43933U 19003B 20184.18162165 .00000496 00000-0 24498-4 0 9990 2 43933 97.2288 233.3565 0017678 184.3616 175.7470 15.22129321 80776 FO-99 1 43937U 19003F 20184.13036670 .00000890 00000-0 38828-4 0 9990 2 43937 097.2251 234.5898 0024375 168.6227 191.5567 15.24413074080874 Delphini 1 1 44030U 98067PW 20184.57834895 .00012169 00000-0 11859-3 0 9991 2 44030 51.6336 237.8250 0002811 126.7551 233.3704 15.66691845 80880 MYSat 1 1 44045U 18092F 20184.66855822 .00001451 00000-0 50540-4 0 9993 2 44045 51.6413 328.4060 0011402 22.1055 338.0417 15.36740959 77622 AstroCast 0.2 1 44083U 19018F 20184.74367092 .00000462 00000-0 23486-4 0 9990 2 44083 97.4200 245.5772 0014761 115.7271 244.5491 15.21623622 69709 AISTechSat 3 1 44103U 19018AB 20184.41950310 .00000676 00000-0 31524-4 0 9997 2 44103 097.4072 245.4344 0014710 129.6045 355.0003 15.23181591069714 AISat 1 1 44104U 19018AC 20184.20279307 .00000708 00000-0 25058-4 0 9996 2 44104 097.4632 253.9692 0058763 158.9979 201.3695 15.31076351070060 Raavana-1 1 44329U 98067QE 20184.58684818 .00006489 00000-0 90982-4 0 9994 2 44329 51.6393 258.2723 0006067 58.1972 301.9611 15.58134621 59361 Uguisu 1 44330U 98067QF 20184.66430763 .00006263 00000-0 88330-4 0 9997 2 44330 51.6375 258.0318 0006080 57.1709 302.9868 15.58045698 59352 NepaliSat-1 1 44331U 98067QG 20184.64320596 .00005990 00000-0 84440-4 0 9992 2 44331 51.6374 257.8932 0006094 60.2192 299.9405 15.58154277 59364 Prox-1 1 44339U 19036A 20183.89632108 .00000676 00000-0 11058-3 0 9990 2 44339 024.0012 021.0039 0011271 308.2326 051.7151 14.53024135054237 Oculus-ASR 1 44348U 19036K 20184.66983839 .00007182 00000-0 10412-3 0 9998 2 44348 28.5150 283.4674 0367229 110.1018 253.9472 15.02610529 56094 Armadillo 1 44352U 19036P 20184.59044719 .00010921 00000-0 15907-3 0 9999 2 44352 28.5302 279.3252 0354701 116.0139 247.7420 15.05381926 56075 NO-104 1 44354U 19036R 20184.59145024 .00007766 00000-0 11099-3 0 9993 2 44354 28.5292 281.1767 0364058 112.6802 251.2696 15.03628046 56094 NO-103 1 44355U 19036S 20184.61105705 .00015605 00000-0 21611-3 0 9991 2 44355 28.5292 271.5688 0342248 128.2682 234.9216 15.09127710 56191 CP9 1 44360U 19036X 20184.48409801 .00026062 -55391-5 29090-3 0 9993 2 44360 28.5121 257.0409 0323083 152.7082 209.0889 15.16488639 56209 Move-IIb 1 44398U 19038N 20184.17493112 .00000839 00000-0 51818-4 0 9999 2 44398 97.5368 145.2184 0026980 77.4968 282.9278 15.12344229 54807 SONATE 1 44400U 19038Q 20184.14679717 .00000289 00000-0 20543-4 0 9997 2 44400 097.5407 145.2052 0026868 076.3957 284.0263 15.11965869054793 BeeSat 9 1 44412U 19038AC 20184.15774802 .00000590 00000-0 37649-4 0 9992 2 44412 097.5392 145.3060 0024448 081.4256 278.9744 15.12315892054499 JAISAT-1 1 44419U 19038F 20184.63635196 .00000607 00000-0 38117-4 0 9994 2 44419 97.5394 146.0545 0023322 79.0964 281.2890 15.12799923 54897 LightSail-2 1 44420U 19036AC 20183.92265156 .00002624 00000-0 53720-3 0 9997 2 44420 024.0066 016.3774 0023159 288.1577 071.6394 14.55791570052438 Taurus 1 1 44530U 19059C 20184.54618065 -.00000721 00000-0 -19120-3 0 9998 2 44530 098.5694 265.7785 0017020 114.8669 245.4289 14.45541285042520 MO-106 1 44830U 19084G 20184.15731986 .00055929 00000-0 29647-3 0 9997 2 44830 096.9720 053.4680 0025504 174.8251 185.3286 15.79898212032778 TRSI-Sat 1 44831U 19084H 20183.91411552 .00047922 00000-0 25822-3 0 9990 2 44831 96.9727 53.2221 0025604 175.0515 185.1012 15.79562937 32746 MO-105 1 44832U 19084J 20184.70985488 .00052851 00000-0 26037-3 0 9999 2 44832 96.9723 54.2314 0024166 171.2644 188.9051 15.81550582 32874 Duchifat 3 1 44854U 19089C 20184.81428232 .00000186 00000-0 21431-4 0 9997 2 44854 36.9686 7.5735 0007650 199.0916 160.9586 14.99076870 30600 OPS-SAT 1 44878U 19092F 20184.48948796 .00000648 00000-0 37686-4 0 9994 2 44878 97.4687 7.5064 0012800 309.0810 50.9283 15.15505186 29812 CAS-6 1 44881U 19093C 20184.72596898 .00000009 00000-0 79988-5 0 9991 2 44881 97.9571 260.6747 0014857 352.8250 7.2752 14.81414041 28952 FloripaSat 1 1 44885U 19093G 20184.71773981 .00000150 00000-0 25638-4 0 9993 2 44885 97.9579 260.8250 0014667 4.2271 355.9066 14.82041377 28966 RS-44 1 44909U 19096E 20184.21320287 .00000027 00000-0 62765-4 0 9990 2 44909 082.5216 345.5037 0217215 191.7192 167.8808 12.79708151024079 SwampSat-2 1 45115U 19071E 20184.17571411 .00008369 00000-0 24891-3 0 9999 2 45115 051.6418 291.2624 0012915 113.2099 247.0245 15.35521923023388 HO-107 1 45119U 19071J 20184.58056691 .00000944 00000-0 40095-4 0 9992 2 45119 51.6443 290.1991 0012801 108.1791 252.0586 15.33612415 23447 Phoenix 1 45258U 98067RB 20184.71707318 .00002370 00000-0 47949-4 0 9992 2 45258 51.6418 270.3880 0006473 41.8135 318.3348 15.50963162 20843 AztechSat-1 1 45261U 98067RE 20184.73149858 .00004929 00000-0 87981-4 0 9999 2 45261 51.6416 269.7404 0008093 56.1491 304.0268 15.51998415 20879 QARMAN 1 45263U 98067RG 20184.70902643 .00004236 00000-0 78506-4 0 9991 2 45263 51.6417 270.3383 0007641 53.7174 306.4520 15.51325783 20908 Quetzal 1 1 45598U 98067RL 20184.53326007 .00004066 00000-0 77935-4 0 9993 2 45598 51.6426 272.1620 0003078 135.4412 224.6825 15.50465097 10131 /EX
